Terminal Aerodrome Forecast
Issued by NWS Sterling, VA

Current Version | Previous Version | Graphics & Text | Print | Product List | Glossary On
Versions: 1 2 3 4 5 6 7 8 9 10 11 12 13 14 15 16 17 18 19 20 21 22
000
FTUS41 KLWX 152300
TAFDCA
TAF
KDCA 152338Z 1600/1624 20004KT P6SM FEW050 BKN250
     FM161300 31004KT P6SM BKN050
     FM161600 33010G18KT P6SM SCT050
     FM162200 34006KT P6SM FEW050=

USA.gov is the U.S. government's official web portal to all federal, state and local government web resources and services.